Time,TemperatureF,DewpointF,PressureIn,WindDirection,WindDirectionDegrees,WindSpeedMPH,WindSpeedGustMPH,Humidity,HourlyPrecipIn,Conditions,Clouds,dailyrainin,SoftwareType,DateUTC
2013-02-11 00:00:00,34.7,18.4,28.10,ESE,112,0.0,0.0,51,0.00,,,0.28,WUHU216DAVISWMX,2013-02-11 05:00:00,
2013-02-11 00:05:00,34.7,18.4,28.10,ESE,112,0.0,0.0,51,0.00,,,0.28,WUHU216DAVISWMX,2013-02-11 05:05:00,
2013-02-11 00:09:00,34.7,17.9,28.10,ESE,112,0.0,0.0,50,0.00,,,0.28,WUHU216DAVISWMX,2013-02-11 05:09:00,
2013-02-11 00:10:00,34.7,17.9,28.10,ESE,112,0.0,0.0,50,0.00,,,0.28,WUHU216DAVISWMX,2013-02-11 05:10:00,
2013-02-11 00:15:00,34.7,17.9,28.10,ESE,112,0.0,0.0,50,0.00,,,0.28,WUHU216DAVISWMX,2013-02-11 05:15:00,
2013-02-11 00:46:00,31.6,24.3,28.07,SE,138,0.0,0.0,74,0.00,,,0.31,WUHU216DAVISWMX,2013-02-11 05:46:00,
2013-02-11 00:51:00,31.4,24.4,28.07,ESE,111,0.0,8.0,75,0.04,,,0.32,WUHU216DAVISWMX,2013-02-11 05:51:00,
2013-02-11 00:56:00,31.3,25.0,28.07,ENE,66,5.0,8.0,77,0.04,,,0.32,WUHU216DAVISWMX,2013-02-11 05:56:00,
2013-02-11 01:01:00,31.1,25.4,28.07,SE,133,0.0,7.0,79,0.05,,,0.33,WUHU216DAVISWMX,2013-02-11 06:01:00,
2013-02-11 01:06:00,31.1,25.4,28.07,ESE,114,0.0,12.0,79,0.06,,,0.34,WUHU216DAVISWMX,2013-02-11 06:06:00,
2013-02-11 01:11:00,31.1,25.7,28.07,ESE,114,0.0,12.0,80,0.03,,,0.34,WUHU216DAVISWMX,2013-02-11 06:11:00,
2013-02-11 01:16:00,31.1,25.4,28.06,ESE,114,0.0,0.0,79,0.03,,,0.34,WUHU216DAVISWMX,2013-02-11 06:16:00,
2013-02-11 01:21:00,31.1,25.4,28.07,ESE,114,0.0,0.0,79,0.03,,,0.34,WUHU216DAVISWMX,2013-02-11 06:21:00,
2013-02-11 01:26:00,31.1,25.4,28.06,ESE,114,0.0,0.0,79,0.03,,,0.34,WUHU216DAVISWMX,2013-02-11 06:26:00,
2013-02-11 01:31:00,31.1,25.4,28.06,ESE,114,0.0,0.0,79,0.03,,,0.34,WUHU216DAVISWMX,2013-02-11 06:31:00,
2013-02-11 01:34:00,31.1,25.7,28.06,ESE,114,0.0,0.0,80,0.03,,,0.34,WUHU216DAVISWMX,2013-02-11 06:34:00,
2013-02-11 01:36:00,31.1,25.7,28.06,ESE,114,0.0,0.0,80,0.03,,,0.34,WUHU216DAVISWMX,2013-02-11 06:36:00,
2013-02-11 01:41:00,31.1,25.7,28.06,ESE,114,0.0,0.0,80,0.03,,,0.34,WUHU216DAVISWMX,2013-02-11 06:41:00,
2013-02-11 02:10:00,31.3,28.4,28.03,East,101,8.0,8.0,89,0.00,,,0.36,WUHU216DAVISWMX,2013-02-11 07:10:00,
2013-02-11 02:15:00,31.3,28.4,28.04,East,90,0.0,8.0,89,0.02,,,0.36,WUHU216DAVISWMX,2013-02-11 07:15:00,
2013-02-11 02:20:00,31.2,28.3,28.03,East,90,0.0,5.0,89,0.02,,,0.36,WUHU216DAVISWMX,2013-02-11 07:20:00,
2013-02-11 02:25:00,31.2,28.3,28.03,East,90,0.0,0.0,89,0.02,,,0.36,WUHU216DAVISWMX,2013-02-11 07:25:00,
2013-02-11 02:30:00,31.3,28.4,28.03,East,90,0.0,0.0,89,0.02,,,0.36,WUHU216DAVISWMX,2013-02-11 07:30:00,
2013-02-11 02:35:00,31.2,28.6,28.02,East,90,0.0,0.0,90,0.00,,,0.36,WUHU216DAVISWMX,2013-02-11 07:35:00,
2013-02-11 02:40:00,31.3,28.4,28.02,East,90,0.0,0.0,89,0.00,,,0.36,WUHU216DAVISWMX,2013-02-11 07:40:00,
2013-02-11 02:41:00,31.3,28.4,28.01,East,90,0.0,0.0,89,0.00,,,0.36,WUHU216DAVISWMX,2013-02-11 07:41:00,
2013-02-11 02:45:00,31.3,28.4,28.01,East,90,0.0,0.0,89,0.00,,,0.36,WUHU216DAVISWMX,2013-02-11 07:45:00,
2013-02-11 02:50:00,31.3,28.4,28.01,East,90,0.0,0.0,89,0.00,,,0.36,WUHU216DAVISWMX,2013-02-11 07:50:00,
2013-02-11 03:09:00,32.3,30.2,28.00,East,94,0.0,0.0,92,0.00,,,0.37,WUHU216DAVISWMX,2013-02-11 08:09:00,
2013-02-11 03:14:00,32.2,30.1,28.00,East,89,5.0,9.0,92,0.01,,,0.37,WUHU216DAVISWMX,2013-02-11 08:14:00,
2013-02-11 03:19:00,32.3,30.2,28.00,ENE,69,1.0,9.0,92,0.01,,,0.37,WUHU216DAVISWMX,2013-02-11 08:19:00,
2013-02-11 03:24:00,32.1,30.0,27.99,East,86,2.0,6.0,92,0.01,,,0.37,WUHU216DAVISWMX,2013-02-11 08:24:00,
2013-02-11 03:29:00,32.3,30.2,27.99,ENE,74,0.0,8.0,92,0.01,,,0.37,WUHU216DAVISWMX,2013-02-11 08:29:00,
2013-02-11 03:34:00,32.2,30.1,27.99,East,87,1.0,9.0,92,0.01,,,0.37,WUHU216DAVISWMX,2013-02-11 08:34:00,
2013-02-11 03:39:00,32.3,30.2,27.99,East,99,4.0,9.0,92,0.01,,,0.37,WUHU216DAVISWMX,2013-02-11 08:39:00,
2013-02-11 03:44:00,32.3,30.5,27.99,East,84,0.0,8.0,93,0.00,,,0.37,WUHU216DAVISWMX,2013-02-11 08:44:00,
2013-02-11 03:49:00,32.4,30.6,27.98,East,88,3.0,8.0,93,0.01,,,0.38,WUHU216DAVISWMX,2013-02-11 08:49:00,
2013-02-11 03:54:00,32.4,30.6,27.98,East,85,2.0,7.0,93,0.01,,,0.38,WUHU216DAVISWMX,2013-02-11 08:54:00,
2013-02-11 03:59:00,32.5,30.7,27.98,ENE,78,4.0,5.0,93,0.01,,,0.38,WUHU216DAVISWMX,2013-02-11 08:59:00,
2013-02-11 04:04:00,32.4,30.6,27.98,NE,49,0.0,7.0,93,0.01,,,0.38,WUHU216DAVISWMX,2013-02-11 09:04:00,
2013-02-11 04:09:00,32.4,30.8,27.98,NE,48,0.0,7.0,94,0.01,,,0.38,WUHU216DAVISWMX,2013-02-11 09:09:00,
2013-02-11 04:14:00,32.4,30.6,27.97,NE,48,0.0,4.0,93,0.01,,,0.38,WUHU216DAVISWMX,2013-02-11 09:14:00,
2013-02-11 04:19:00,32.5,30.7,27.98,NE,48,0.0,3.0,93,0.01,,,0.38,WUHU216DAVISWMX,2013-02-11 09:19:00,
2013-02-11 04:24:00,32.5,30.7,27.97,NE,48,0.0,0.0,93,0.01,,,0.38,WUHU216DAVISWMX,2013-02-11 09:24:00,
2013-02-11 04:29:00,32.5,30.7,27.97,NE,48,0.0,0.0,93,0.01,,,0.38,WUHU216DAVISWMX,2013-02-11 09:29:00,
2013-02-11 04:34:00,32.5,30.7,27.97,NE,48,0.0,0.0,93,0.01,,,0.38,WUHU216DAVISWMX,2013-02-11 09:34:00,
2013-02-11 04:39:00,32.5,30.7,27.97,NE,48,0.0,0.0,93,0.01,,,0.38,WUHU216DAVISWMX,2013-02-11 09:39:00,
2013-02-11 04:44:00,32.5,30.7,27.97,NNE,30,0.0,0.0,93,0.01,,,0.38,WUHU216DAVISWMX,2013-02-11 09:44:00,
2013-02-11 05:08:00,32.0,30.7,27.96,ENE,64,5.0,5.0,95,0.00,,,0.39,WUHU216DAVISWMX,2013-02-11 10:08:00,
2013-02-11 05:13:00,33.4,32.1,27.95,ENE,72,0.0,6.0,95,0.01,,,0.39,WUHU216DAVISWMX,2013-02-11 10:13:00,
2013-02-11 05:18:00,33.4,32.1,27.96,ENE,72,0.0,6.0,95,0.01,,,0.39,WUHU216DAVISWMX,2013-02-11 10:18:00,
2013-02-11 05:23:00,33.5,32.2,27.96,ENE,72,0.0,3.0,95,0.01,,,0.39,WUHU216DAVISWMX,2013-02-11 10:23:00,
2013-02-11 05:28:00,33.5,32.2,27.95,ENE,72,0.0,4.0,95,0.01,,,0.39,WUHU216DAVISWMX,2013-02-11 10:28:00,
2013-02-11 05:33:00,33.5,32.2,27.95,ENE,72,0.0,4.0,95,0.01,,,0.39,WUHU216DAVISWMX,2013-02-11 10:33:00,
2013-02-11 05:38:00,33.5,32.2,27.95,ENE,72,0.0,0.0,95,0.01,,,0.39,WUHU216DAVISWMX,2013-02-11 10:38:00,
2013-02-11 05:43:00,33.5,32.2,27.95,ENE,72,0.0,0.0,95,0.00,,,0.39,WUHU216DAVISWMX,2013-02-11 10:43:00,
2013-02-11 05:48:00,33.5,32.2,27.95,ENE,72,0.0,0.0,95,0.00,,,0.39,WUHU216DAVISWMX,2013-02-11 10:48:00,
2013-02-11 05:53:00,33.5,32.2,27.95,ENE,72,0.0,0.0,95,0.00,,,0.39,WUHU216DAVISWMX,2013-02-11 10:53:00,
2013-02-11 05:58:00,33.5,32.2,27.95,ENE,72,0.0,0.0,95,0.00,,,0.39,WUHU216DAVISWMX,2013-02-11 10:58:00,
2013-02-11 06:03:00,33.5,32.2,27.95,ENE,72,0.0,0.0,95,0.00,,,0.39,WUHU216DAVISWMX,2013-02-11 11:03:00,
2013-02-11 06:22:00,32.7,31.4,27.95,ENE,73,0.0,0.0,95,0.00,,,0.39,WUHU216DAVISWMX,2013-02-11 11:22:00,
2013-02-11 06:27:00,32.4,30.8,27.95,ENE,73,0.0,0.0,94,0.00,,,0.39,WUHU216DAVISWMX,2013-02-11 11:27:00,
2013-02-11 06:32:00,32.4,31.1,27.95,ENE,73,0.0,0.0,95,0.00,,,0.39,WUHU216DAVISWMX,2013-02-11 11:32:00,
2013-02-11 06:37:00,32.4,31.1,27.95,ENE,73,0.0,0.0,95,0.00,,,0.39,WUHU216DAVISWMX,2013-02-11 11:37:00,
2013-02-11 06:42:00,32.3,31.2,27.95,ENE,74,0.0,0.0,96,0.00,,,0.39,WUHU216DAVISWMX,2013-02-11 11:42:00,
2013-02-11 06:47:00,32.1,30.8,27.95,ENE,74,0.0,0.0,95,0.00,,,0.39,WUHU216DAVISWMX,2013-02-11 11:47:00,
2013-02-11 06:52:00,32.0,30.7,27.96,ENE,74,0.0,0.0,95,0.00,,,0.39,WUHU216DAVISWMX,2013-02-11 11:52:00,
2013-02-11 06:57:00,31.8,30.5,27.96,ENE,74,0.0,0.0,95,0.00,,,0.39,WUHU216DAVISWMX,2013-02-11 11:57:00,
2013-02-11 07:02:00,31.8,30.5,27.95,ENE,75,0.0,0.0,95,0.00,,,0.39,WUHU216DAVISWMX,2013-02-11 12:02:00,
2013-02-11 07:07:00,31.9,30.6,27.95,ENE,75,0.0,0.0,95,0.00,,,0.39,WUHU216DAVISWMX,2013-02-11 12:07:00,
2013-02-11 07:12:00,31.8,30.5,27.95,ENE,75,0.0,0.0,95,0.01,,,0.40,WUHU216DAVISWMX,2013-02-11 12:12:00,
2013-02-11 07:17:00,31.9,30.6,27.95,ENE,75,0.0,0.0,95,0.01,,,0.40,WUHU216DAVISWMX,2013-02-11 12:17:00,
2013-02-11 07:22:00,32.0,30.7,27.95,ENE,75,0.0,0.0,95,0.01,,,0.40,WUHU216DAVISWMX,2013-02-11 12:22:00,
2013-02-11 07:27:00,31.9,30.6,27.95,ENE,76,0.0,0.0,95,0.01,,,0.40,WUHU216DAVISWMX,2013-02-11 12:27:00,
2013-02-11 07:32:00,31.9,30.6,27.95,ENE,76,0.0,0.0,95,0.01,,,0.40,WUHU216DAVISWMX,2013-02-11 12:32:00,
2013-02-11 07:37:00,32.0,30.7,27.95,ENE,76,0.0,0.0,95,0.01,,,0.40,WUHU216DAVISWMX,2013-02-11 12:37:00,
2013-02-11 07:42:00,31.9,30.6,27.95,ENE,76,0.0,0.0,95,0.01,,,0.40,WUHU216DAVISWMX,2013-02-11 12:42:00,
2013-02-11 07:47:00,32.0,31.0,27.95,ENE,76,0.0,0.0,96,0.01,,,0.40,WUHU216DAVISWMX,2013-02-11 12:47:00,
2013-02-11 07:52:00,32.1,30.8,27.94,ENE,77,0.0,0.0,95,0.01,,,0.40,WUHU216DAVISWMX,2013-02-11 12:52:00,
2013-02-11 07:57:00,32.0,30.7,27.95,ENE,77,0.0,0.0,95,0.01,,,0.40,WUHU216DAVISWMX,2013-02-11 12:57:00,
2013-02-11 08:02:00,31.9,30.6,27.94,ENE,77,0.0,0.0,95,0.01,,,0.40,WUHU216DAVISWMX,2013-02-11 13:02:00,
2013-02-11 08:07:00,32.0,30.7,27.94,ENE,77,0.0,0.0,95,0.01,,,0.40,WUHU216DAVISWMX,2013-02-11 13:07:00,
2013-02-11 08:12:00,32.1,30.8,27.94,ENE,77,0.0,0.0,95,0.00,,,0.40,WUHU216DAVISWMX,2013-02-11 13:12:00,
2013-02-11 08:17:00,32.2,30.9,27.94,ENE,77,0.0,0.0,95,0.00,,,0.40,WUHU216DAVISWMX,2013-02-11 13:17:00,
2013-02-11 08:19:00,32.1,31.1,27.94,NE,53,0.0,0.0,96,0.00,,,0.40,WUHU216DAVISWMX,2013-02-11 13:19:00,
2013-02-11 08:22:00,32.1,31.1,27.94,NE,53,0.0,0.0,96,0.00,,,0.40,WUHU216DAVISWMX,2013-02-11 13:22:00,
2013-02-11 08:27:00,32.1,31.1,27.94,NE,53,0.0,0.0,96,0.00,,,0.40,WUHU216DAVISWMX,2013-02-11 13:27:00,
2013-02-11 08:53:00,35.1,34.3,27.93,ENE,75,0.0,0.0,97,0.00,,,0.40,WUHU216DAVISWMX,2013-02-11 13:53:00,
2013-02-11 08:58:00,36.2,35.7,27.93,SW,214,0.0,5.0,98,0.00,,,0.40,WUHU216DAVISWMX,2013-02-11 13:58:00,
2013-02-11 09:03:00,36.9,36.4,27.93,SW,214,4.0,5.0,98,0.00,,,0.40,WUHU216DAVISWMX,2013-02-11 14:03:00,
2013-02-11 09:08:00,37.4,36.9,27.93,SW,214,3.0,5.0,98,0.00,,,0.40,WUHU216DAVISWMX,2013-02-11 14:08:00,
2013-02-11 09:13:00,37.8,37.3,27.93,SW,222,5.0,5.0,98,0.00,,,0.40,WUHU216DAVISWMX,2013-02-11 14:13:00,
2013-02-11 09:18:00,38.2,37.7,27.93,SW,227,0.0,5.0,98,0.00,,,0.40,WUHU216DAVISWMX,2013-02-11 14:18:00,
2013-02-11 09:23:00,38.3,37.8,27.92,SW,229,0.0,5.0,98,0.00,,,0.40,WUHU216DAVISWMX,2013-02-11 14:23:00,
2013-02-11 09:28:00,38.5,38.2,27.92,SW,229,0.0,5.0,99,0.00,,,0.40,WUHU216DAVISWMX,2013-02-11 14:28:00,
2013-02-11 09:33:00,38.5,38.0,27.92,SW,229,0.0,2.0,98,0.00,,,0.40,WUHU216DAVISWMX,2013-02-11 14:33:00,
2013-02-11 09:38:00,38.5,38.0,27.92,SW,229,0.0,0.0,98,0.00,,,0.40,WUHU216DAVISWMX,2013-02-11 14:38:00,
2013-02-11 09:43:00,38.5,38.0,27.91,SW,229,0.0,0.0,98,0.00,,,0.40,WUHU216DAVISWMX,2013-02-11 14:43:00,
2013-02-11 09:48:00,38.5,38.0,27.92,SW,229,0.0,0.0,98,0.00,,,0.40,WUHU216DAVISWMX,2013-02-11 14:48:00,
2013-02-11 09:53:00,38.4,37.9,27.91,SW,229,0.0,0.0,98,0.00,,,0.40,WUHU216DAVISWMX,2013-02-11 14:53:00,
2013-02-11 09:54:00,38.5,38.0,27.91,SW,229,0.0,0.0,98,0.00,,,0.40,WUHU216DAVISWMX,2013-02-11 14:54:00,
2013-02-11 09:58:00,38.5,38.0,27.91,SW,229,0.0,0.0,98,0.00,,,0.40,WUHU216DAVISWMX,2013-02-11 14:58:00,
2013-02-11 10:03:00,38.5,38.0,27.91,SW,229,0.0,0.0,98,0.00,,,0.40,WUHU216DAVISWMX,2013-02-11 15:03:00,
2013-02-11 10:21:00,43.5,40.4,27.90,SW,221,3.0,3.0,89,0.00,,,0.40,WUHU216DAVISWMX,2013-02-11 15:21:00,
2013-02-11 10:26:00,43.9,40.8,27.90,SSW,196,5.0,12.0,89,0.00,,,0.40,WUHU216DAVISWMX,2013-02-11 15:26:00,
2013-02-11 10:31:00,44.4,40.7,27.90,South,185,7.0,17.0,87,0.00,,,0.40,WUHU216DAVISWMX,2013-02-11 15:31:00,
2013-02-11 10:36:00,45.1,40.8,27.89,SSW,194,12.0,17.0,85,0.00,,,0.40,WUHU216DAVISWMX,2013-02-11 15:36:00,
2013-02-11 10:41:00,45.5,40.9,27.89,SSW,196,9.0,15.0,84,0.00,,,0.40,WUHU216DAVISWMX,2013-02-11 15:41:00,
2013-02-11 10:46:00,46.0,40.5,27.89,SSW,209,10.0,15.0,81,0.00,,,0.40,WUHU216DAVISWMX,2013-02-11 15:46:00,
2013-02-11 10:50:00,46.3,40.5,27.88,SSW,194,0.0,15.0,80,0.00,,,0.40,WUHU216DAVISWMX,2013-02-11 15:50:00,
2013-02-11 10:55:00,46.6,40.5,27.88,SW,219,5.0,17.0,79,0.00,,,0.40,WUHU216DAVISWMX,2013-02-11 15:55:00,
2013-02-11 11:00:00,46.8,40.3,27.88,SSW,194,8.0,17.0,78,0.00,,,0.40,WUHU216DAVISWMX,2013-02-11 16:00:00,
2013-02-11 11:05:00,47.2,40.7,27.88,South,180,8.0,18.0,78,0.00,,,0.40,WUHU216DAVISWMX,2013-02-11 16:05:00,
2013-02-11 11:11:00,47.4,40.3,27.87,SSW,192,11.0,18.0,76,0.00,,,0.40,WUHU216DAVISWMX,2013-02-11 16:11:00,
2013-02-11 11:16:00,47.8,40.3,27.87,SW,215,18.0,18.0,75,0.00,,,0.40,WUHU216DAVISWMX,2013-02-11 16:16:00,
2013-02-11 11:21:00,47.8,40.0,27.86,South,179,8.0,18.0,74,0.00,,,0.40,WUHU216DAVISWMX,2013-02-11 16:21:00,
2013-02-11 11:26:00,48.3,40.1,27.86,South,183,9.0,17.0,73,0.00,,,0.40,WUHU216DAVISWMX,2013-02-11 16:26:00,
2013-02-11 11:31:00,48.5,39.6,27.85,SW,231,19.0,23.0,71,0.00,,,0.40,WUHU216DAVISWMX,2013-02-11 16:31:00,
2013-02-11 11:36:00,48.7,39.5,27.85,SSW,208,14.0,23.0,70,0.00,,,0.40,WUHU216DAVISWMX,2013-02-11 16:36:00,
2013-02-11 11:41:00,49.0,39.0,27.85,SSW,201,13.0,20.0,68,0.00,,,0.40,WUHU216DAVISWMX,2013-02-11 16:41:00,
2013-02-11 11:46:00,49.2,39.2,27.85,South,180,7.0,18.0,68,0.00,,,0.40,WUHU216DAVISWMX,2013-02-11 16:46:00,
2013-02-11 11:51:00,49.5,38.7,27.84,South,190,4.0,19.0,66,0.00,,,0.40,WUHU216DAVISWMX,2013-02-11 16:51:00,
2013-02-11 11:56:00,49.7,38.5,27.84,SSW,197,9.0,19.0,65,0.00,,,0.40,WUHU216DAVISWMX,2013-02-11 16:56:00,
2013-02-11 12:01:00,50.0,38.4,27.84,WSW,238,9.0,21.0,64,0.00,,,0.40,WUHU216DAVISWMX,2013-02-11 17:01:00,
2013-02-11 12:06:00,50.0,38.0,27.84,SSW,199,9.0,21.0,63,0.00,,,0.40,WUHU216DAVISWMX,2013-02-11 17:06:00,
2013-02-11 12:11:00,49.7,36.9,27.84,SW,226,8.0,21.0,61,0.00,,,0.40,WUHU216DAVISWMX,2013-02-11 17:11:00,
2013-02-11 12:16:00,49.7,36.9,27.83,SW,220,9.0,25.0,61,0.00,,,0.40,WUHU216DAVISWMX,2013-02-11 17:16:00,
2013-02-11 12:21:00,50.2,36.9,27.83,SSW,206,0.0,25.0,60,0.00,,,0.40,WUHU216DAVISWMX,2013-02-11 17:21:00,
2013-02-11 12:26:00,50.2,36.9,27.83,SSW,206,0.0,22.0,60,0.00,,,0.40,WUHU216DAVISWMX,2013-02-11 17:26:00,
2013-02-11 12:31:00,50.1,36.4,27.83,SSW,206,0.0,0.0,59,0.00,,,0.40,WUHU216DAVISWMX,2013-02-11 17:31:00,
2013-02-11 12:36:00,50.1,36.8,27.82,SSW,206,0.0,0.0,60,0.00,,,0.40,WUHU216DAVISWMX,2013-02-11 17:36:00,
2013-02-11 12:41:00,50.1,36.8,27.82,SSW,206,0.0,0.0,60,0.00,,,0.40,WUHU216DAVISWMX,2013-02-11 17:41:00,
2013-02-11 12:46:00,50.1,36.8,27.82,SSW,206,0.0,0.0,60,0.00,,,0.40,WUHU216DAVISWMX,2013-02-11 17:46:00,
2013-02-11 12:49:00,50.1,36.8,27.82,SSW,206,0.0,0.0,60,0.00,,,0.40,WUHU216DAVISWMX,2013-02-11 17:49:00,
2013-02-11 12:51:00,50.1,36.8,27.82,SSW,206,0.0,0.0,60,0.00,,,0.40,WUHU216DAVISWMX,2013-02-11 17:51:00,
2013-02-11 12:56:00,50.1,36.8,27.82,SSW,206,0.0,0.0,60,0.00,,,0.40,WUHU216DAVISWMX,2013-02-11 17:56:00,
2013-02-11 13:24:00,51.2,32.6,27.80,SSW,207,6.0,6.0,49,0.00,,,0.40,WUHU216DAVISWMX,2013-02-11 18:24:00,
2013-02-11 13:29:00,51.5,31.9,27.80,SSW,205,10.0,22.0,47,0.00,,,0.40,WUHU216DAVISWMX,2013-02-11 18:29:00,
2013-02-11 13:34:00,51.6,31.9,27.80,SSW,192,10.0,26.0,47,0.00,,,0.40,WUHU216DAVISWMX,2013-02-11 18:34:00,
2013-02-11 13:39:00,51.6,31.9,27.80,SSW,210,7.0,26.0,47,0.00,,,0.40,WUHU216DAVISWMX,2013-02-11 18:39:00,
2013-02-11 13:44:00,51.7,31.5,27.80,South,183,16.0,24.0,46,0.00,,,0.40,WUHU216DAVISWMX,2013-02-11 18:44:00,
2013-02-11 13:49:00,52.0,31.8,27.79,SSW,203,11.0,24.0,46,0.00,,,0.40,WUHU216DAVISWMX,2013-02-11 18:49:00,
2013-02-11 13:54:00,52.2,31.9,27.79,SSW,206,18.0,19.0,46,0.00,,,0.40,WUHU216DAVISWMX,2013-02-11 18:54:00,
2013-02-11 13:59:00,52.4,30.4,27.79,SW,228,9.0,19.0,43,0.00,,,0.40,WUHU216DAVISWMX,2013-02-11 18:59:00,
2013-02-11 14:04:00,52.1,30.1,27.79,SSW,202,7.0,16.0,43,0.00,,,0.40,WUHU216DAVISWMX,2013-02-11 19:04:00,
2013-02-11 14:09:00,51.8,29.3,27.79,SW,224,7.0,13.0,42,0.00,,,0.40,WUHU216DAVISWMX,2013-02-11 19:09:00,
2013-02-11 14:14:00,51.7,30.9,27.78,SW,219,5.0,13.0,45,0.00,,,0.40,WUHU216DAVISWMX,2013-02-11 19:14:00,
2013-02-11 14:19:00,51.6,29.1,27.78,SW,226,10.0,16.0,42,0.00,,,0.40,WUHU216DAVISWMX,2013-02-11 19:19:00,
2013-02-11 14:24:00,51.9,28.1,27.78,SSW,199,14.0,32.0,40,0.00,,,0.40,WUHU216DAVISWMX,2013-02-11 19:24:00,
2013-02-11 14:29:00,52.1,27.7,27.78,SSW,212,16.0,32.0,39,0.00,,,0.40,WUHU216DAVISWMX,2013-02-11 19:29:00,
2013-02-11 14:34:00,51.8,27.4,27.78,SSW,198,18.0,24.0,39,0.00,,,0.40,WUHU216DAVISWMX,2013-02-11 19:34:00,
2013-02-11 14:39:00,51.5,28.4,27.78,SW,215,14.0,21.0,41,0.00,,,0.40,WUHU216DAVISWMX,2013-02-11 19:39:00,
2013-02-11 14:44:00,51.2,28.7,27.78,SW,225,8.0,21.0,42,0.00,,,0.40,WUHU216DAVISWMX,2013-02-11 19:44:00,
2013-02-11 14:49:00,51.4,28.3,27.78,SSW,205,8.0,23.0,41,0.00,,,0.40,WUHU216DAVISWMX,2013-02-11 19:49:00,
2013-02-11 14:54:00,51.6,29.1,27.78,SSW,210,12.0,23.0,42,0.00,,,0.40,WUHU216DAVISWMX,2013-02-11 19:54:00,
2013-02-11 14:59:00,51.7,28.6,27.78,SSW,198,8.0,19.0,41,0.00,,,0.40,WUHU216DAVISWMX,2013-02-11 19:59:00,
2013-02-11 15:04:00,51.7,28.6,27.78,SSW,202,14.0,19.0,41,0.00,,,0.40,WUHU216DAVISWMX,2013-02-11 20:04:00,
2013-02-11 15:09:00,51.5,27.8,27.78,SSW,213,13.0,22.0,40,0.00,,,0.40,WUHU216DAVISWMX,2013-02-11 20:09:00,
2013-02-11 15:14:00,51.7,27.3,27.79,South,172,7.0,26.0,39,0.00,,,0.40,WUHU216DAVISWMX,2013-02-11 20:14:00,
2013-02-11 15:19:00,51.6,25.3,27.78,SSW,203,24.0,26.0,36,0.00,,,0.40,WUHU216DAVISWMX,2013-02-11 20:19:00,
2013-02-11 15:24:00,51.9,24.2,27.78,SSW,203,15.0,24.0,34,0.00,,,0.40,WUHU216DAVISWMX,2013-02-11 20:24:00,
2013-02-11 15:29:00,52.1,23.6,27.79,SSW,213,7.0,24.0,33,0.00,,,0.40,WUHU216DAVISWMX,2013-02-11 20:29:00,
2013-02-11 15:34:00,52.2,24.4,27.79,SSW,197,14.0,18.0,34,0.00,,,0.40,WUHU216DAVISWMX,2013-02-11 20:34:00,
2013-02-11 15:39:00,52.1,21.4,27.79,SSW,208,14.0,24.0,30,0.00,,,0.40,WUHU216DAVISWMX,2013-02-11 20:39:00,
2013-02-11 15:44:00,52.0,21.3,27.79,South,186,11.0,29.0,30,0.00,,,0.40,WUHU216DAVISWMX,2013-02-11 20:44:00,
2013-02-11 15:49:00,51.9,21.2,27.79,SW,218,11.0,29.0,30,0.00,,,0.40,WUHU216DAVISWMX,2013-02-11 20:49:00,
2013-02-11 15:54:00,51.6,20.9,27.78,SSW,201,12.0,38.0,30,0.00,,,0.40,WUHU216DAVISWMX,2013-02-11 20:54:00,
2013-02-11 15:59:00,51.6,20.9,27.78,SSW,209,19.0,41.0,30,0.01,,,0.41,WUHU216DAVISWMX,2013-02-11 20:59:00,
2013-02-11 16:04:00,51.3,20.7,27.79,SSW,201,16.0,41.0,30,0.01,,,0.41,WUHU216DAVISWMX,2013-02-11 21:04:00,
2013-02-11 16:09:00,51.1,20.5,27.79,SW,217,13.0,29.0,30,0.01,,,0.41,WUHU216DAVISWMX,2013-02-11 21:09:00,
2013-02-11 16:14:00,51.0,21.2,27.79,SW,216,14.0,37.0,31,0.01,,,0.41,WUHU216DAVISWMX,2013-02-11 21:14:00,
2013-02-11 16:19:00,50.6,21.6,27.78,SSW,213,17.0,37.0,32,0.01,,,0.41,WUHU216DAVISWMX,2013-02-11 21:19:00,
2013-02-11 16:24:00,50.6,20.8,27.78,SSW,209,14.0,23.0,31,0.01,,,0.41,WUHU216DAVISWMX,2013-02-11 21:24:00,
2013-02-11 16:29:00,50.8,20.2,27.78,SSW,198,19.0,30.0,30,0.01,,,0.41,WUHU216DAVISWMX,2013-02-11 21:29:00,
2013-02-11 16:34:00,50.7,20.9,27.78,SSE,148,14.0,30.0,31,0.01,,,0.41,WUHU216DAVISWMX,2013-02-11 21:34:00,
2013-02-11 16:39:00,50.4,19.9,27.78,South,186,11.0,24.0,30,0.01,,,0.41,WUHU216DAVISWMX,2013-02-11 21:39:00,
2013-02-11 16:44:00,50.5,20.7,27.78,SSE,162,18.0,27.0,31,0.01,,,0.41,WUHU216DAVISWMX,2013-02-11 21:44:00,
2013-02-11 16:49:00,50.2,20.5,27.78,South,181,13.0,27.0,31,0.01,,,0.41,WUHU216DAVISWMX,2013-02-11 21:49:00,
2013-02-11 16:54:00,49.9,20.2,27.78,South,175,4.0,20.0,31,0.01,,,0.41,WUHU216DAVISWMX,2013-02-11 21:54:00,
2013-02-11 16:59:00,49.8,20.1,27.78,SSW,196,7.0,20.0,31,0.00,,,0.41,WUHU216DAVISWMX,2013-02-11 21:59:00,
2013-02-11 17:04:00,49.6,20.7,27.79,SSW,202,10.0,20.0,32,0.00,,,0.41,WUHU216DAVISWMX,2013-02-11 22:04:00,
2013-02-11 17:09:00,48.7,21.3,27.79,SSW,209,11.0,15.0,34,0.00,,,0.41,WUHU216DAVISWMX,2013-02-11 22:09:00,
2013-02-11 17:14:00,48.2,20.9,27.79,SSW,203,7.0,15.0,34,0.00,,,0.41,WUHU216DAVISWMX,2013-02-11 22:14:00,
2013-02-11 17:19:00,47.7,21.1,27.79,SSW,210,8.0,15.0,35,0.00,,,0.41,WUHU216DAVISWMX,2013-02-11 22:19:00,
2013-02-11 17:24:00,47.6,19.7,27.79,SSW,203,2.0,15.0,33,0.00,,,0.41,WUHU216DAVISWMX,2013-02-11 22:24:00,
2013-02-11 17:29:00,47.1,21.3,27.80,SSW,206,2.0,15.0,36,0.00,,,0.41,WUHU216DAVISWMX,2013-02-11 22:29:00,
2013-02-11 17:34:00,46.8,20.3,27.80,South,186,7.0,15.0,35,0.00,,,0.41,WUHU216DAVISWMX,2013-02-11 22:34:00,
2013-02-11 17:39:00,46.6,20.2,27.80,South,190,0.0,18.0,35,0.00,,,0.41,WUHU216DAVISWMX,2013-02-11 22:39:00,
2013-02-11 17:44:00,46.4,20.0,27.80,SW,216,5.0,18.0,35,0.00,,,0.41,WUHU216DAVISWMX,2013-02-11 22:44:00,
2013-02-11 17:49:00,46.1,19.7,27.80,SW,220,9.0,17.0,35,0.00,,,0.41,WUHU216DAVISWMX,2013-02-11 22:49:00,
2013-02-11 17:54:00,46.0,19.6,27.81,SSW,206,9.0,18.0,35,0.00,,,0.41,WUHU216DAVISWMX,2013-02-11 22:54:00,
2013-02-11 17:59:00,46.1,19.0,27.81,SSW,196,8.0,20.0,34,0.00,,,0.41,WUHU216DAVISWMX,2013-02-11 22:59:00,
2013-02-11 18:04:00,45.9,19.5,27.81,SSW,200,5.0,20.0,35,0.00,,,0.41,WUHU216DAVISWMX,2013-02-11 23:04:00,
2013-02-11 18:09:00,45.6,19.3,27.82,SW,215,10.0,13.0,35,0.00,,,0.41,WUHU216DAVISWMX,2013-02-11 23:09:00,
2013-02-11 18:14:00,45.5,19.2,27.82,SSW,202,14.0,14.0,35,0.00,,,0.41,WUHU216DAVISWMX,2013-02-11 23:14:00,
2013-02-11 18:19:00,45.5,19.8,27.82,SSW,196,5.0,18.0,36,0.00,,,0.41,WUHU216DAVISWMX,2013-02-11 23:19:00,
2013-02-11 18:24:00,45.2,18.9,27.83,SW,215,13.0,18.0,35,0.00,,,0.41,WUHU216DAVISWMX,2013-02-11 23:24:00,
2013-02-11 18:29:00,45.3,19.7,27.83,SSW,196,16.0,24.0,36,0.00,,,0.41,WUHU216DAVISWMX,2013-02-11 23:29:00,
2013-02-11 18:34:00,45.5,19.2,27.83,SW,216,18.0,24.0,35,0.00,,,0.41,WUHU216DAVISWMX,2013-02-11 23:34:00,
2013-02-11 18:39:00,45.1,18.8,27.83,SSW,210,11.0,19.0,35,0.00,,,0.41,WUHU216DAVISWMX,2013-02-11 23:39:00,
2013-02-11 18:44:00,45.1,19.5,27.83,SSW,213,8.0,20.0,36,0.00,,,0.41,WUHU216DAVISWMX,2013-02-11 23:44:00,
2013-02-11 18:49:00,44.7,18.5,27.84,SW,214,11.0,20.0,35,0.00,,,0.41,WUHU216DAVISWMX,2013-02-11 23:49:00,
2013-02-11 18:54:00,44.5,21.5,27.85,WSW,237,6.0,18.0,40,0.00,,,0.41,WUHU216DAVISWMX,2013-02-11 23:54:00,
2013-02-11 18:59:00,42.9,25.0,27.85,SW,233,11.0,21.0,49,0.00,,,0.41,WUHU216DAVISWMX,2013-02-11 23:59:00,
2013-02-11 19:04:00,41.8,25.0,27.86,WSW,243,4.0,21.0,51,0.00,,,0.41,WUHU216DAVISWMX,2013-02-12 00:04:00,
2013-02-11 19:09:00,41.2,25.3,27.86,SW,220,7.0,16.0,53,0.00,,,0.41,WUHU216DAVISWMX,2013-02-12 00:09:00,
2013-02-11 19:15:00,40.7,25.8,27.87,WSW,242,4.0,16.0,55,0.00,,,0.41,WUHU216DAVISWMX,2013-02-12 00:15:00,
2013-02-11 19:20:00,40.6,25.7,27.87,WSW,244,0.0,13.0,55,0.00,,,0.41,WUHU216DAVISWMX,2013-02-12 00:20:00,
2013-02-11 19:25:00,40.6,25.7,27.88,WSW,244,0.0,9.0,55,0.00,,,0.41,WUHU216DAVISWMX,2013-02-12 00:25:00,
2013-02-11 19:30:00,40.6,25.7,27.88,WSW,244,0.0,0.0,55,0.00,,,0.41,WUHU216DAVISWMX,2013-02-12 00:30:00,
2013-02-11 19:35:00,40.5,25.6,27.89,WSW,244,0.0,0.0,55,0.00,,,0.41,WUHU216DAVISWMX,2013-02-12 00:35:00,
2013-02-11 19:40:00,40.6,25.7,27.89,WSW,244,0.0,0.0,55,0.00,,,0.41,WUHU216DAVISWMX,2013-02-12 00:40:00,
2013-02-11 19:44:00,40.5,25.6,27.89,WSW,244,0.0,0.0,55,0.00,,,0.41,WUHU216DAVISWMX,2013-02-12 00:44:00,
2013-02-11 19:45:00,40.6,25.7,27.89,WSW,244,0.0,0.0,55,0.00,,,0.41,WUHU216DAVISWMX,2013-02-12 00:45:00,
2013-02-11 19:50:00,40.5,25.6,27.89,WSW,244,0.0,0.0,55,0.00,,,0.41,WUHU216DAVISWMX,2013-02-12 00:50:00,
2013-02-11 20:23:00,37.5,25.3,27.92,SW,216,4.0,4.0,61,0.00,,,0.41,WUHU216DAVISWMX,2013-02-12 01:23:00,
2013-02-11 20:28:00,37.0,24.9,27.92,WSW,258,5.0,16.0,61,0.00,,,0.41,WUHU216DAVISWMX,2013-02-12 01:28:00,
2013-02-11 20:33:00,36.6,24.5,27.92,SW,230,0.0,16.0,61,0.00,,,0.41,WUHU216DAVISWMX,2013-02-12 01:33:00,
2013-02-11 20:38:00,36.3,24.2,27.92,WSW,249,0.0,14.0,61,0.00,,,0.41,WUHU216DAVISWMX,2013-02-12 01:38:00,
2013-02-11 20:43:00,35.9,23.8,27.93,SW,228,1.0,14.0,61,0.00,,,0.41,WUHU216DAVISWMX,2013-02-12 01:43:00,
2013-02-11 20:48:00,35.6,24.3,27.93,West,268,3.0,14.0,63,0.00,,,0.41,WUHU216DAVISWMX,2013-02-12 01:48:00,
2013-02-11 20:53:00,35.5,24.2,27.93,WSW,238,13.0,13.0,63,0.00,,,0.41,WUHU216DAVISWMX,2013-02-12 01:53:00,
2013-02-11 20:58:00,35.3,23.6,27.93,WSW,241,10.0,14.0,62,0.00,,,0.41,WUHU216DAVISWMX,2013-02-12 01:58:00,
2013-02-11 21:03:00,35.2,23.9,27.94,WSW,245,9.0,14.0,63,0.00,,,0.41,WUHU216DAVISWMX,2013-02-12 02:03:00,
2013-02-11 21:08:00,35.2,23.9,27.94,WSW,247,0.0,12.0,63,0.00,,,0.41,WUHU216DAVISWMX,2013-02-12 02:08:00,
2013-02-11 21:13:00,35.2,23.9,27.94,WSW,247,0.0,0.0,63,0.00,,,0.41,WUHU216DAVISWMX,2013-02-12 02:13:00,
2013-02-11 21:18:00,35.2,23.9,27.94,WSW,247,0.0,0.0,63,0.00,,,0.41,WUHU216DAVISWMX,2013-02-12 02:18:00,
2013-02-11 21:23:00,35.2,23.9,27.94,WSW,247,0.0,0.0,63,0.00,,,0.41,WUHU216DAVISWMX,2013-02-12 02:23:00,
2013-02-11 21:28:00,35.2,23.9,27.94,WSW,247,0.0,0.0,63,0.00,,,0.41,WUHU216DAVISWMX,2013-02-12 02:28:00,
2013-02-11 21:32:00,35.2,23.9,27.94,West,280,0.0,0.0,63,0.00,,,0.41,WUHU216DAVISWMX,2013-02-12 02:32:00,
2013-02-11 21:33:00,35.2,23.9,27.94,WSW,247,0.0,0.0,63,0.00,,,0.41,WUHU216DAVISWMX,2013-02-12 02:33:00,
2013-02-11 21:38:00,35.2,23.9,27.94,West,280,0.0,0.0,63,0.00,,,0.41,WUHU216DAVISWMX,2013-02-12 02:38:00,
2013-02-11 21:43:00,35.2,23.9,27.94,West,280,0.0,0.0,63,0.00,,,0.41,WUHU216DAVISWMX,2013-02-12 02:43:00,
2013-02-11 22:16:00,33.1,22.3,27.95,WSW,245,5.0,5.0,64,0.00,,,0.41,WUHU216DAVISWMX,2013-02-12 03:16:00,
2013-02-11 22:21:00,33.9,23.4,27.94,SW,217,3.0,7.0,65,0.00,,,0.41,WUHU216DAVISWMX,2013-02-12 03:21:00,
2013-02-11 22:26:00,33.8,23.3,27.95,SSW,210,5.0,13.0,65,0.00,,,0.41,WUHU216DAVISWMX,2013-02-12 03:26:00,
2013-02-11 22:31:00,33.8,23.3,27.95,SSW,213,0.0,13.0,65,0.00,,,0.41,WUHU216DAVISWMX,2013-02-12 03:31:00,
2013-02-11 22:36:00,33.8,23.3,27.95,SSW,213,0.0,9.0,65,0.00,,,0.41,WUHU216DAVISWMX,2013-02-12 03:36:00,
2013-02-11 22:41:00,33.8,23.3,27.95,SSW,213,0.0,0.0,65,0.00,,,0.41,WUHU216DAVISWMX,2013-02-12 03:41:00,
2013-02-11 22:46:00,33.8,23.3,27.95,SSW,213,0.0,0.0,65,0.00,,,0.41,WUHU216DAVISWMX,2013-02-12 03:46:00,
2013-02-11 22:51:00,33.8,23.3,27.95,SSW,213,0.0,0.0,65,0.00,,,0.41,WUHU216DAVISWMX,2013-02-12 03:51:00,
2013-02-11 22:56:00,33.8,23.3,27.95,SSW,213,0.0,0.0,65,0.00,,,0.41,WUHU216DAVISWMX,2013-02-12 03:56:00,
2013-02-11 22:57:00,33.8,23.3,27.95,SSW,213,0.0,0.0,65,0.00,,,0.41,WUHU216DAVISWMX,2013-02-12 03:57:00,
2013-02-11 23:01:00,33.8,23.3,27.95,SSW,213,0.0,0.0,65,0.00,,,0.41,WUHU216DAVISWMX,2013-02-12 04:01:00,
2013-02-11 23:06:00,33.8,23.3,27.95,SSW,213,0.0,0.0,65,0.00,,,0.41,WUHU216DAVISWMX,2013-02-12 04:06:00,
2013-02-11 23:29:00,33.8,22.6,27.96,SW,221,11.0,11.0,63,0.00,,,0.41,WUHU216DAVISWMX,2013-02-12 04:29:00,
2013-02-11 23:34:00,33.7,22.5,27.96,SW,217,11.0,19.0,63,0.00,,,0.41,WUHU216DAVISWMX,2013-02-12 04:34:00,
2013-02-11 23:39:00,33.5,22.3,27.96,SW,217,7.0,20.0,63,0.00,,,0.41,WUHU216DAVISWMX,2013-02-12 04:39:00,
2013-02-11 23:44:00,33.4,22.2,27.97,SW,231,11.0,20.0,63,0.00,,,0.41,WUHU216DAVISWMX,2013-02-12 04:44:00,
2013-02-11 23:49:00,33.3,22.5,27.97,WSW,239,11.0,13.0,64,0.00,,,0.41,WUHU216DAVISWMX,2013-02-12 04:49:00,
2013-02-11 23:54:00,33.0,22.6,27.97,WSW,237,9.0,20.0,65,0.00,,,0.41,WUHU216DAVISWMX,2013-02-12 04:54:00,
2013-02-11 23:59:00,32.8,22.0,27.97,WSW,246,13.0,20.0,64,0.00,,,0.41,WUHU216DAVISWMX,2013-02-12 04:59:00,